Total_Precipitation_Accumulation
0.40 0.31 0.48 0.49 0.46 0.56 0.82 0.79 0.71 0.33 0.17 0.13 0.12 0.16 0.15 0.13 0.11 0.11 0.09 0.08 0.09 0.09 0.10 0.09 0.06 0.05 0.03 0.03 0.04 0.06 0.07 0.09 0.10 0.11 0.12 0.14 0.15 0.16 0.18 0.18 0.19 0.21 0.23 0.25
0.46 0.28 0.38 0.44 0.41 0.43 0.48 0.50 0.49 0.35 0.27 0.16 0.14 0.16 0.15 0.13 0.11 0.11 0.09 0.09 0.08 0.07 0.08 0.08 0.07 0.06 0.06 0.06 0.05 0.06 0.08 0.10 0.10 0.11 0.11 0.11 0.13 0.15 0.17 0.18 0.20 0.23 0.28 0.34
0.52 0.31 0.40 0.45 0.39 0.40 0.40 0.36 0.38 0.40 0.30 0.19 0.19 0.19 0.17 0.14 0.12 0.10 0.07 0.06 0.05 0.05 0.06 0.06 0.05 0.06 0.05 0.06 0.06 0.07 0.09 0.10 0.11 0.12 0.12 0.12 0.13 0.19 0.24 0.28 0.30 0.35 0.40 0.48
0.51 0.37 0.48 0.35 0.27 0.29 0.32 0.31 0.32 0.30 0.22 0.17 0.17 0.19 0.18 0.15 0.12 0.08 0.05 0.04 0.03 0.03 0.03 0.04 0.03 0.04 0.04 0.04 0.06 0.08 0.10 0.13 0.15 0.16 0.21 0.24 0.24 0.28 0.35 0.40 0.42 0.46 0.48 0.51
0.49 0.37 0.26 0.19 0.18 0.21 0.28 0.30 0.26 0.19 0.13 0.11 0.12 0.17 0.18 0.15 0.11 0.08 0.06 0.06 0.05 0.05 0.05 0.04 0.04 0.04 0.05 0.06 0.07 0.08 0.10 0.14 0.18 0.20 0.26 0.33 0.34 0.37 0.43 0.48 0.51 0.50 0.48 0.44
0.45 0.38 0.19 0.11 0.07 0.09 0.19 0.30 0.18 0.16 0.15 0.14 0.16 0.19 0.17 0.13 0.12 0.12 0.11 0.08 0.09 0.09 0.10 0.11 0.11 0.12 0.13 0.13 0.17 0.20 0.21 0.24 0.29 0.34 0.40 0.43 0.43 0.42 0.41 0.41 0.41 0.38 0.33 0.28
0.35 0.31 0.08 0.04 0.04 0.07 0.20 0.25 0.11 0.10 0.12 0.15 0.14 0.13 0.13 0.10 0.10 0.13 0.14 0.13 0.13 0.14 0.16 0.18 0.17 0.19 0.20 0.21 0.28 0.33 0.36 0.37 0.38 0.41 0.42 0.43 0.40 0.37 0.34 0.29 0.24 0.21 0.19 0.17
0.17 0.22 0.11 0.05 0.06 0.10 0.13 0.10 0.10 0.11 0.13 0.13 0.13 0.11 0.10 0.12 0.11 0.10 0.10 0.12 0.14 0.16 0.18 0.21 0.24 0.28 0.29 0.31 0.35 0.36 0.36 0.36 0.35 0.34 0.32 0.32 0.30 0.27 0.24 0.21 0.17 0.15 0.13 0.13
0.09 0.10 0.08 0.07 0.07 0.07 0.07 0.07 0.08 0.10 0.11 0.10 0.10 0.11 0.09 0.08 0.08 0.08 0.09 0.11 0.14 0.18 0.20 0.23 0.25 0.28 0.30 0.30 0.29 0.29 0.29 0.27 0.24 0.22 0.20 0.19 0.18 0.16 0.15 0.14 0.13 0.12 0.12 0.12
0.07 0.04 0.04 0.05 0.05 0.05 0.04 0.04 0.03 0.04 0.06 0.09 0.11 0.11 0.10 0.07 0.06 0.07 0.07 0.08 0.11 0.13 0.14 0.16 0.16 0.18 0.20 0.18 0.18 0.17 0.17 0.17 0.16 0.14 0.13 0.13 0.12 0.13 0.12 0.11 0.10 0.10 0.10 0.11
0.07 0.05 0.04 0.04 0.04 0.04 0.03 0.02 0.02 0.02 0.02 0.04 0.06 0.07 0.08 0.07 0.07 0.07 0.07 0.07 0.08 0.08 0.09 0.10 0.10 0.10 0.11 0.10 0.10 0.11 0.11 0.12 0.12 0.13 0.13 0.14 0.14 0.14 0.15 0.15 0.15 0.15 0.12 0.12
0.09 0.06 0.06 0.05 0.04 0.04 0.03 0.03 0.02 0.03 0.03 0.03 0.04 0.05 0.04 0.04 0.04 0.05 0.06 0.07 0.07 0.07 0.09 0.11 0.11 0.10 0.09 0.08 0.08 0.10 0.11 0.12 0.12 0.13 0.13 0.13 0.14 0.15 0.17 0.17 0.17 0.17 0.17 0.16
0.06 0.04 0.04 0.04 0.03 0.02 0.03 0.03 0.03 0.03 0.03 0.04 0.05 0.05 0.05 0.05 0.06 0.07 0.08 0.09 0.09 0.09 0.09 0.11 0.12 0.12 0.11 0.11 0.11 0.11 0.12 0.13 0.13 0.14 0.15 0.14 0.14 0.15 0.15 0.16 0.16 0.16 0.16 0.17
0.03 0.04 0.04 0.03 0.03 0.02 0.02 0.02 0.03 0.03 0.03 0.04 0.05 0.05 0.05 0.05 0.06 0.08 0.10 0.12 0.12 0.11 0.11 0.10 0.11 0.13 0.13 0.11 0.11 0.13 0.14 0.15 0.16 0.15 0.15 0.14 0.14 0.14 0.15 0.15 0.14 0.12 0.14 0.16
0.02 0.04 0.05 0.04 0.03 0.03 0.03 0.03 0.03 0.03 0.03 0.03 0.03 0.04 0.04 0.06 0.07 0.09 0.10 0.10 0.12 0.12 0.12 0.12 0.12 0.12 0.13 0.12 0.11 0.11 0.13 0.13 0.14 0.15 0.16 0.17 0.17 0.17 0.16 0.16 0.15 0.14 0.13 0.15
0.03 0.03 0.03 0.02 0.02 0.03 0.04 0.04 0.04 0.05 0.05 0.05 0.06 0.07 0.08 0.09 0.09 0.08 0.09 0.09 0.10 0.10 0.09 0.09 0.10 0.10 0.10 0.10 0.11 0.11 0.11 0.15 0.15 0.14 0.14 0.15 0.17 0.18 0.17 0.18 0.17 0.16 0.15 0.15
0.04 0.04 0.05 0.05 0.04 0.04 0.04 0.04 0.04 0.05 0.06 0.06 0.07 0.08 0.08 0.09 0.08 0.08 0.08 0.08 0.08 0.09 0.10 0.10 0.10 0.10 0.09 0.09 0.09 0.09 0.10 0.12 0.16 0.14 0.13 0.14 0.14 0.16 0.16 0.17 0.17 0.16 0.14 0.16
0.05 0.05 0.05 0.06 0.06 0.05 0.05 0.05 0.05 0.05 0.06 0.06 0.06 0.07 0.09 0.09 0.10 0.10 0.10 0.10 0.09 0.09 0.09 0.09 0.09 0.09 0.09 0.09 0.10 0.10 0.11 0.11 0.12 0.12 0.13 0.15 0.17 0.17 0.17 0.17 0.15 0.15 0.14 0.16
0.04 0.04 0.04 0.04 0.05 0.06 0.06 0.07 0.06 0.06 0.06 0.07 0.07 0.08 0.09 0.09 0.09 0.09 0.09 0.10 0.10 0.11 0.11 0.10 0.11 0.10 0.09 0.10 0.12 0.10 0.11 0.12 0.13 0.14 0.15 0.18 0.19 0.17 0.16 0.16 0.16 0.15 0.15 0.15
0.04 0.05 0.07 0.08 0.09 0.09 0.10 0.09 0.09 0.09 0.09 0.08 0.08 0.08 0.08 0.08 0.08 0.08 0.08 0.08 0.09 0.09 0.10 0.12 0.12 0.10 0.10 0.10 0.13 0.11 0.11 0.12 0.14 0.16 0.17 0.18 0.18 0.17 0.16 0.16 0.16 0.15 0.15 0.14
0.07 0.07 0.09 0.11 0.11 0.12 0.11 0.10 0.10 0.09 0.09 0.08 0.08 0.09 0.10 0.10 0.09 0.09 0.09 0.09 0.09 0.08 0.08 0.10 0.10 0.09 0.10 0.12 0.15 0.13 0.13 0.13 0.14 0.15 0.16 0.17 0.18 0.17 0.16 0.15 0.15 0.15 0.14 0.13
0.10 0.10 0.11 0.12 0.14 0.14 0.13 0.10 0.09 0.08 0.08 0.08 0.08 0.08 0.08 0.08 0.09 0.09 0.09 0.09 0.10 0.10 0.08 0.07 0.07 0.09 0.12 0.14 0.12 0.12 0.13 0.14 0.14 0.15 0.16 0.17 0.17 0.17 0.17 0.17 0.17 0.16 0.15 0.14
0.11 0.11 0.11 0.12 0.13 0.14 0.13 0.12 0.11 0.10 0.09 0.09 0.09 0.09 0.09 0.09 0.09 0.09 0.09 0.08 0.07 0.08 0.07 0.06 0.08 0.11 0.12 0.10 0.09 0.10 0.12 0.13 0.13 0.14 0.14 0.15 0.16 0.16 0.17 0.16 0.16 0.15 0.14 0.14
0.12 0.12 0.11 0.11 0.11 0.10 0.10 0.11 0.11 0.11 0.10 0.10 0.10 0.10 0.10 0.10 0.09 0.08 0.08 0.08 0.09 0.09 0.07 0.07 0.09 0.10 0.10 0.09 0.09 0.10 0.11 0.12 0.12 0.13 0.13 0.14 0.15 0.15 0.16 0.15 0.15 0.13 0.13 0.12
0.12 0.11 0.11 0.10 0.10 0.10 0.10 0.09 0.09 0.08 0.08 0.08 0.08 0.07 0.07 0.08 0.09 0.08 0.08 0.08 0.09 0.10 0.08 0.09 0.10 0.10 0.10 0.10 0.10 0.12 0.13 0.13 0.14 0.15 0.15 0.14 0.13 0.14 0.14 0.14 0.14 0.14 0.13 0.12
0.10 0.09 0.08 0.08 0.07 0.07 0.08 0.07 0.07 0.07 0.07 0.07 0.07 0.06 0.06 0.06 0.06 0.06 0.06 0.06 0.07 0.08 0.09 0.09 0.10 0.11 0.11 0.11 0.12 0.13 0.13 0.14 0.14 0.13 0.12 0.12 0.13 0.14 0.13 0.13 0.13 0.13 0.12 0.11
0.08 0.07 0.07 0.06 0.06 0.05 0.06 0.06 0.06 0.07 0.07 0.07 0.08 0.07 0.07 0.06 0.06 0.06 0.06 0.05 0.05 0.06 0.06 0.07 0.07 0.08 0.09 0.10 0.11 0.12 0.12 0.12 0.12 0.12 0.13 0.13 0.13 0.13 0.13 0.12 0.12 0.12 0.12 0.11